Jack Northrop Field Hawthorne Municipal Airport
KHHR : now visible

Airfield :











YOU CAN JOIN US ON...

 
LOGIN :

Register | Disclaimer

   EN    FR    IT 

 









Legend :    VFR   Marginal VFR   IFR   Intensive IFR   Very Intensive IFR
Visi :
Ceiling :
>= 8 km
>= 3000ft
5 to 8 km
1000 to 3000 ft
1500m to 5 km
500 to 1000 ft
800 to 1500m
200 to 500 ft
< 800m
< 200 ft
Symbols :   Thunderstorms  Fog  Heavy snow  Heavy precipitations  Wind > 20 kt






- Airport Elevation : 66 ft


KHHR - Jack Northrop Field Hawthorne Municipal

CURRENT METAR :
  • 201453Z 16003KT 10SM OVC023 16/11 A3001 RMK AO2 SLP162 T01560111 53013

EXPIRED METARs :
  • 201353Z 00000KT 10SM OVC022 15/11 A3000 RMK AO2 SLP157 T01500111
  • 201253Z AUTO 00000KT 10SM OVC020 15/11 A2998 RMK AO2 SLP151 T01500111
  • 201153Z AUTO 00000KT 10SM OVC019 15/11 A2997 RMK AO2 SLP148 T01500111 10150 20144 55001
  • 201053Z AUTO 00000KT 10SM OVC019 15/11 A2996 RMK AO2 SLP146 T01500111

TAF N/A
KZLA FIR / North America



MET'MAP, your aeronautical weather chart ! - Copyright ORBIFLY December 2007 - Disclaimer

ORBIFLY MET'MAP TEAM :

Programming & Development : Alexandra Zaïnal
Original concept : Baudouin d'Aumeries
Technical & hardware support : Manuel Goepfert
Assistance : Marc-Olivier Méhu




SOURCES & CREDITS :

   NOAA       Earth
Advisory